CW8659 Weather Reports


time (UTC)temp
C
wind
direction
speed
KPH
gust
KPH
rain 1hr
cm
rain 24hr
cm
rain mn
cm
humidity
%
barometer
mb
20260506202327 15 170 3.2 0.0 0.00 0.00 1.04 92 1005.3
20260506201850 15 213 4.8 0.0 0.00 0.00 1.04 92 1005.4
20260506201339 15 240 4.8 0.0 0.00 0.00 1.04 92 1005.5
20260506200840 15 239 3.2 0.0 0.00 0.00 1.04 92 1005.4
20260506200319 15 203 1.6 0.0 0.00 0.00 1.04 92 1005.5
20260506195840 15 232 3.2 0.0 0.00 0.00 1.04 92 1005.5
20260506195340 15 231 1.6 0.0 0.00 0.00 1.04 92 1005.5
20260506194845 15 206 0.0 0.0 0.00 0.00 1.04 92 1005.5
20260506194322 15 198 3.2 0.0 0.00 0.00 1.04 92 1005.5
20260506193832 15 204 3.2 0.0 0.00 0.00 1.04 92 1005.6
20260506193320 15 207 1.6 0.0 0.00 0.00 1.04 92 1005.6
20260506192825 15 199 4.8 0.0 0.00 0.00 1.04 92 1005.7
20260506192327 15 233 4.8 0.0 0.00 0.00 1.04 92 1005.6
20260506191825 15 201 4.8 0.0 0.00 0.00 1.04 92 1005.7
20260506191330 15 207 4.8 0.0 0.00 0.00 1.04 92 1005.8
20260506190831 15 207 3.2 0.0 0.00 0.00 1.04 92 1005.8
20260506190340 15 213 3.2 0.0 0.00 0.00 1.04 92 1005.8
20260506185824 15 188 4.8 0.0 0.00 0.00 1.04 92 1005.8
20260506185351 15 190 3.2 0.0 0.00 0.00 1.02 92 1005.9
20260506184833 15 207 3.2 0.0 0.00 0.00 1.02 92 1005.9
20260506184334 15 219 1.6 0.0 0.00 0.00 1.02 92 1006.1
20260506183840 15 225 1.6 0.0 0.00 0.00 1.02 92 1006.1
20260506183323 15 203 1.6 0.0 0.00 0.00 1.02 92 1006.1
20260506182835 15 236 1.6 0.0 0.00 0.00 0.99 92 1006.1
20260506182320 15 200 1.6 0.0 0.00 0.00 0.99 92 1006.1
20260506181826 15 185 4.8 0.0 0.00 0.00 0.97 92 1006.2
20260506181355 15 211 4.8 0.0 0.00 0.00 0.97 92 1006.3
20260506180840 15 193 3.2 0.0 0.00 0.00 0.94 92 1006.3
20260506180319 15 238 3.2 0.0 0.00 0.00 0.94 92 1006.3
20260506175821 15 205 3.2 0.0 0.00 0.00 0.94 92 1006.4
20260506175330 15 201 3.2 0.0 0.00 0.00 0.91 92 1006.4
20260506174836 15 196 3.2 0.0 0.00 0.00 0.89 92 1006.4
20260506174338 15 200 3.2 0.0 0.00 0.00 0.86 92 1006.3
20260506173820 15 198 1.6 0.0 0.00 0.00 0.84 92 1006.4
20260506173327 15 209 3.2 0.0 0.00 0.00 0.81 92 1006.4
20260506172834 15 212 3.2 0.0 0.00 0.00 0.79 92 1006.4
20260506172316 15 188 1.6 0.0 0.00 0.00 0.79 91 1006.5
20260506171819 15 217 1.6 0.0 0.00 0.00 0.76 91 1006.4
20260506171323 15 196 1.6 0.0 0.00 0.00 0.76 91 1006.4
20260506170831 15 218 0.0 0.0 0.00 0.00 0.76 91 1006.4
20260506170332 15 198 1.6 0.0 0.00 0.00 0.74 91 1006.3
20260506165839 15 193 1.6 0.0 0.00 0.00 0.74 91 1006.3
20260506165315 15 193 0.0 0.0 0.00 0.00 0.71 91 1006.4
20260506164820 15 194 1.6 0.0 0.00 0.00 0.69 91 1006.4
20260506164323 15 221 1.6 0.0 0.00 0.00 0.66 91 1006.4
20260506163824 15 209 3.2 0.0 0.00 0.00 0.66 91 1006.5
20260506163328 15 207 4.8 0.0 0.00 0.00 0.66 91 1006.5
20260506162834 15 195 3.2 0.0 0.00 0.00 0.66 91 1006.5
20260506162343 15 200 3.2 0.0 0.00 0.00 0.64 91 1006.6
20260506161814 15 173 3.2 0.0 0.00 0.00 0.61 91 1006.5
20260506161320 15 180 1.6 0.0 0.00 0.00 0.61 91 1006.5
20260506160825 15 223 1.6 0.0 0.00 0.00 0.58 91 1006.4
20260506160404 15 215 1.6 0.0 0.00 0.00 0.58 91 1006.5
20260506155820 15 192 1.6 0.0 0.00 0.00 0.58 91 1006.5
20260506155317 15 199 1.6 0.0 0.00 0.00 0.56 91 1006.6
20260506154824 15 199 1.6 0.0 0.00 0.00 0.53 91 1006.8
20260506154326 15 209 1.6 0.0 0.00 0.00 0.51 91 1006.7
20260506153836 15 238 1.6 0.0 0.00 0.00 0.48 91 1007.1
20260506153318 15 217 0.0 0.0 0.00 0.00 0.43 91 1007.4
20260506152821 15 210 1.6 0.0 0.00 0.00 0.43 91 1007.5
20260506152357 15 223 1.6 0.0 0.00 0.00 0.41 91 1007.4
20260506151839 15 199 0.0 0.0 0.00 0.00 0.38 91 1007.4
20260506151315 15 194 0.0 0.0 0.00 0.00 0.36 91 1007.2
20260506150838 15 223 0.0 0.0 0.00 0.00 0.36 91 1007.0
20260506150320 15 195 0.0 0.0 0.00 0.00 0.33 91 1006.8
20260506145828 15 192 0.0 0.0 0.00 0.00 0.30 91 1006.9
20260506145328 15 240 0.0 0.0 0.00 0.00 0.30 91 1007.0
20260506144830 15 200 0.0 0.0 0.00 0.00 0.30 91 1007.0
20260506144320 15 211 0.0 0.0 0.00 0.00 0.28 91 1007.1
20260506143826 15 214 0.0 0.0 0.00 0.00 0.28 91 1007.1
20260506143332 15 203 0.0 0.0 0.00 0.00 0.25 91 1007.2
20260506142843 15 206 1.6 0.0 0.00 0.00 0.25 90 1007.3
20260506142319 15 188 1.6 0.0 0.00 0.00 0.23 90 1007.4
20260506141823 15 206 1.6 0.0 0.00 0.00 0.20 90 1007.4
20260506141324 15 218 0.0 0.0 0.00 0.00 0.18 90 1007.6
20260506140829 15 188 0.0 0.0 0.00 0.00 0.15 89 1007.5
20260506140338 15 204 0.0 0.0 0.00 0.00 0.15 89 1007.5
20260506135826 15 200 0.0 0.0 0.00 0.00 0.13 89 1007.6
20260506135328 15 182 0.0 0.0 0.00 0.00 0.13 89 1007.6
20260506134839 15 180 0.0 0.0 0.00 0.00 0.10 89 1007.6
20260506134339 15 219 0.0 0.0 0.00 0.00 0.08 88 1007.6
20260506133826 16 204 0.0 0.0 0.00 0.00 0.08 88 1007.6
20260506133323 16 195 0.0 0.0 0.00 0.00 0.08 88 1007.6
20260506132829 16 195 0.0 0.0 0.00 0.00 0.05 87 1007.6
20260506132319 16 192 0.0 0.0 0.00 0.00 0.05 87 1007.7
20260506131845 16 207 0.0 0.0 0.00 0.00 0.03 86 1007.7
20260506131328 16 245 0.0 0.0 0.00 0.00 0.03 86 1007.9
20260506130817 16 200 0.0 0.0 0.00 0.00 0.03 86 1007.9
20260506130315 16 252 0.0 0.0 0.00 0.00 0.03 85 1007.8
20260506125818 16 200 1.6 0.0 0.00 0.00 0.00 84 1007.9
20260506125316 16 230 3.2 0.0 0.00 0.00 0.00 83 1007.8
20260506124824 16 187 3.2 0.0 0.00 0.00 0.00 83 1007.7
20260506124333 16 209 1.6 0.0 0.00 0.00 0.00 82 1007.6
20260506123936 16 207 3.2 0.0 0.00 0.00 0.00 82 1007.6
20260506123326 16 229 4.8 0.0 0.00 0.00 0.00 83 1007.7
20260506122828 16 225 3.2 0.0 0.00 0.00 0.00 83 1007.6
20260506122335 16 191 1.6 0.0 0.00 0.00 0.00 84 1007.5
20260506121838 16 179 3.2 0.0 0.00 0.00 0.00 84 1007.5
20260506121313 16 188 3.2 0.0 0.00 0.00 0.00 83 1007.4
20260506120819 16 211 3.2 0.0 0.00 0.00 0.00 82 1007.5
20260506120331 16 221 3.2 0.0 0.00 0.00 0.00 81 1007.6
20260506115834 17 209 1.6 0.0 0.00 0.00 0.00 80 1007.6
20260506115340 17 209 0.0 0.0 0.00 0.00 0.00 79 1007.6
20260506114842 17 206 0.0 0.0 0.00 0.00 0.00 79 1007.6
20260506114326 16 206 0.0 0.0 0.00 0.00 0.00 80 1007.6
20260506113833 16 221 0.0 0.0 0.00 0.00 0.00 81 1007.7
20260506113325 15 205 0.0 0.0 0.00 0.00 0.00 84 1007.7
20260506112856 13 215 0.0 0.0 0.00 0.00 0.00 86 1007.6
20260506112336 13 198 0.0 0.0 0.00 0.00 0.00 86 1007.7
20260506111820 13 211 0.0 0.0 0.00 0.00 0.00 85 1007.7
20260506111351 13 202 0.0 0.0 0.00 0.00 0.00 85 1007.6
20260506110836 13 202 0.0 0.0 0.00 0.00 0.00 87 1007.7
20260506110324 12 200 0.0 0.0 0.00 0.00 0.00 86 1007.7
20260506105832 12 202 0.0 0.0 0.00 0.00 0.00 85 1007.7
20260506105338 12 202 0.0 0.0 0.00 0.00 0.00 85 1007.3
20260506104821 12 200 0.0 0.0 0.00 0.00 0.00 84 1007.3
20260506104327 12 202 0.0 0.0 0.00 0.00 0.00 85 1007.2
20260506103838 12 202 0.0 0.0 0.00 0.00 0.00 85 1007.2
20260506103330 12 202 0.0 0.0 0.00 0.00 0.00 84 1007.2
20260506102818 12 202 0.0 0.0 0.00 0.00 0.00 84 1007.2
20260506102327 12 202 0.0 0.0 0.00 0.00 0.00 84 1007.2
20260506101834 12 202 0.0 0.0 0.00 0.00 0.00 84 1007.1
20260506101332 12 202 0.0 0.0 0.00 0.00 0.00 84 1007.3
20260506100819 12 201 0.0 0.0 0.00 0.00 0.00 84 1007.1
20260506100322 12 202 0.0 0.0 0.00 0.00 0.00 83 1007.1
20260506095831 12 200 0.0 0.0 0.00 0.00 0.00 84 1007.2
20260506095333 12 202 0.0 0.0 0.00 0.00 0.00 83 1007.5
20260506094836 12 202 0.0 0.0 0.00 0.00 0.00 83 1007.4
20260506094403 12 200 0.0 0.0 0.00 0.00 0.00 84 1007.2
20260506093846 12 201 0.0 0.0 0.00 0.00 0.00 83 1007.3
20260506093323 12 202 0.0 0.0 0.00 0.00 0.00 83 1007.1
20260506092830 12 202 0.0 0.0 0.00 0.00 0.00 83 1007.2
20260506092356 12 202 0.0 0.0 0.00 0.00 0.00 83 1007.3
20260506091821 12 201 0.0 0.0 0.00 0.00 0.00 83 1007.2
20260506091330 12 202 0.0 0.0 0.00 0.00 0.00 83 1007.2
20260506090835 12 202 0.0 0.0 0.00 0.00 0.00 83 1007.2
20260506090340 12 202 0.0 0.0 0.00 0.00 0.00 83 1007.1
20260506085816 12 202 0.0 0.0 0.00 0.00 0.00 82 1007.4
20260506085344 12 202 0.0 0.0 0.00 0.00 0.00 83 1007.3
20260506084829 12 202 0.0 0.0 0.00 0.00 0.00 82 1007.5
20260506084338 12 202 0.0 0.0 0.00 0.00 0.00 82 1007.4
20260506083819 12 200 0.0 0.0 0.00 0.00 0.00 83 1007.5
20260506083328 12 202 0.0 0.0 0.00 0.00 0.00 82 1007.6
20260506082834 12 202 0.0 0.0 0.00 0.00 0.00 82 1007.5
20260506082344 12 202 0.0 0.0 0.00 0.00 0.00 82 1007.4
20260506081835 12 200 0.0 0.0 0.00 0.00 0.00 82 1007.6
20260506081337 12 202 0.0 0.0 0.00 0.00 0.00 82 1007.5
20260506080838 12 202 0.0 0.0 0.00 0.00 0.00 82 1007.5
20260506080320 12 202 0.0 0.0 0.00 0.00 0.00 82 1007.4
20260506073320 12 202 0.0 0.0 0.00 0.00 0.00 82 1007.7
20260506072847 12 201 0.0 0.0 0.00 0.00 0.00 81 1007.8
20260506072331 12 201 0.0 0.0 0.00 0.00 0.00 81 1007.7
20260506071831 12 201 0.0 0.0 0.00 0.00 0.00 80 1007.8
20260506071336 12 202 0.0 0.0 0.00 0.00 0.00 80 1007.8
20260506070818 12 201 0.0 0.0 0.00 0.00 0.00 80 1007.9
20260506070324 13 200 0.0 0.0 0.00 0.00 0.00 81 1007.7
20260506062333 13 202 0.0 0.0 0.00 0.00 0.00 80 1008.2
20260506061842 13 202 0.0 0.0 0.00 0.00 0.00 80 1008.3
20260506061318 13 202 0.0 0.0 0.00 0.00 0.00 80 1008.3
20260506060845 13 202 0.0 0.0 0.00 0.00 0.00 79 1008.4
20260506060327 13 202 0.0 0.0 0.00 0.00 0.00 79 1008.5
20260506051340 13 202 0.0 0.0 0.00 0.00 0.00 79 1008.6
20260506050850 13 200 0.0 0.0 0.00 0.00 0.00 78 1008.7
20260506050338 13 202 0.0 0.0 0.00 0.00 0.00 77 1008.7
20260506044819 13 201 0.0 0.0 0.00 0.00 0.00 76 1008.8
20260506044324 13 202 0.0 0.0 0.00 0.00 0.00 76 1008.8
20260506043848 13 202 0.0 0.0 0.00 0.00 0.00 75 1008.8
20260506043333 13 202 0.0 0.0 0.00 0.00 0.00 74 1008.8
20260506042839 13 202 0.0 0.0 0.00 0.00 0.00 74 1008.8
20260506042324 14 202 0.0 0.0 0.00 0.00 0.00 73 1008.8
20260506041826 14 202 0.0 0.0 0.00 0.00 0.00 72 1008.8
20260506041331 15 201 0.0 0.0 0.00 0.00 0.00 71 1008.8
20260506040839 15 200 0.0 0.0 0.00 0.00 0.00 70 1008.9
20260506040334 15 201 0.0 0.0 0.00 0.00 0.00 68 1008.9
20260506035838 16 201 0.0 0.0 0.00 0.00 0.00 67 1008.8
20260506035326 16 202 0.0 0.0 0.00 0.00 0.00 65 1008.8
20260506034902 16 201 0.0 0.0 0.00 0.00 0.00 64 1008.8
20260506034402 16 200 0.0 0.0 0.00 0.00 0.00 63 1008.8
20260506033843 16 200 0.0 0.0 0.00 0.00 0.00 63 1008.8
20260506033356 16 200 0.0 0.0 0.00 0.00 0.00 62 1008.8
20260506032900 17 200 0.0 0.0 0.00 0.00 0.00 61 1008.7
20260506032345 17 201 0.0 0.0 0.00 0.00 0.00 60 1008.8
20260506031818 17 201 0.0 0.0 0.00 0.00 0.00 59 1008.7
20260506031354 18 201 0.0 0.0 0.00 0.00 0.00 57 1008.7
20260506030833 18 201 0.0 0.0 0.00 0.00 0.00 56 1008.7
20260506030321 18 200 0.0 0.0 0.00 0.00 0.00 55 1008.7
20260506025332 19 201 0.0 0.0 0.00 0.00 0.00 53 1008.7
20260506024816 20 200 0.0 0.0 0.00 0.00 0.00 51 1008.7
20260506024326 20 201 0.0 0.0 0.00 0.00 0.00 49 1008.6
20260506023845 21 201 0.0 0.0 0.00 0.00 0.00 48 1008.7
20260506023331 21 223 0.0 0.0 0.00 0.00 0.00 47 1008.8
20260506022833 21 191 0.0 0.0 0.00 0.00 0.00 47 1008.7
20260506022338 21 229 0.0 0.0 0.00 0.00 0.00 46 1008.7
20260506021833 21 236 0.0 0.0 0.00 0.00 0.00 47 1008.7
20260506021320 21 207 0.0 0.0 0.00 0.00 0.00 46 1008.7
20260506020829 21 241 1.6 0.0 0.00 0.00 0.00 46 1008.7
20260506020356 21 198 3.2 0.0 0.00 0.00 0.00 45 1008.8
20260506015823 21 246 4.8 0.0 0.00 0.00 0.00 45 1008.7
20260506015331 21 221 3.2 0.0 0.00 0.00 0.00 45 1008.6
20260506014837 21 228 1.6 0.0 0.00 0.00 0.00 45 1008.6
20260506014343 22 200 0.0 0.0 0.00 0.00 0.00 44 1008.4
20260506013821 22 214 0.0 0.0 0.00 0.00 0.00 45 1008.4
20260506013325 22 198 0.0 0.0 0.00 0.00 0.00 45 1008.3
20260506012824 22 207 0.0 0.0 0.00 0.00 0.00 44 1008.3
20260506012327 22 205 0.0 0.0 0.00 0.00 0.00 44 1008.2
20260506011828 22 217 1.6 0.0 0.00 0.00 0.00 44 1008.2
20260506011335 22 244 4.8 0.0 0.00 0.00 0.00 43 1008.2
20260506010857 22 198 4.8 0.0 0.00 0.00 0.00 44 1008.0
20260506010343 22 208 3.2 0.0 0.00 0.00 0.00 44 1008.0
20260506005843 22 225 1.6 0.0 0.00 0.00 0.00 45 1008.0
20260506005320 21 195 1.6 0.0 0.00 0.00 0.00 46 1007.9
20260506004821 21 214 3.2 0.0 0.00 0.00 0.00 45 1007.9
20260506004333 22 198 3.2 0.0 0.00 0.00 0.00 45 1007.9
20260506003821 22 186 3.2 0.0 0.00 0.00 0.00 44 1007.9
20260506003324 22 186 4.8 0.0 0.00 0.00 0.00 44 1007.9
20260506002832 22 195 4.8 0.0 0.00 0.00 0.00 42 1007.8
20260506002334 22 205 6.4 0.0 0.00 0.00 0.00 41 1007.8
20260506001831 23 232 6.4 0.0 0.00 0.00 0.00 41 1007.7
20260506001320 23 165 6.4 0.0 0.00 0.00 0.00 40 1007.6
20260506000846 23 179 4.8 0.0 0.00 0.00 0.00 40 1007.5
20260506000403 23 200 3.2 0.0 0.00 0.00 0.00 40 1007.6
20260505235820 23 206 3.2 0.0 0.00 0.00 0.00 40 1007.5
20260505235328 23 222 1.6 0.0 0.00 0.00 0.00 39 1007.6
20260505234833 23 192 1.6 0.0 0.00 0.00 0.00 40 1007.5
20260505234341 23 213 4.8 0.0 0.00 0.00 0.00 41 1007.5
20260505233817 23 201 4.8 0.0 0.00 0.00 0.00 40 1007.4
20260505233320 23 186 3.2 0.0 0.00 0.00 0.00 40 1007.5
20260505232857 23 196 1.6 0.0 0.00 0.00 0.00 40 1007.4
20260505232328 23 237 0.0 0.0 0.00 0.00 0.00 40 1007.3
20260505231816 23 223 0.0 0.0 0.00 0.00 0.00 40 1007.3
20260505231332 23 186 0.0 0.0 0.00 0.00 0.00 39 1007.3
20260505230820 24 205 1.6 0.0 0.00 0.00 0.00 39 1007.3
20260505230322 24 197 1.6 0.0 0.00 0.00 0.00 39 1007.2
20260505225822 23 205 3.2 0.0 0.00 0.00 0.00 40 1007.3
20260505225354 23 209 4.8 0.0 0.00 0.00 0.00 40 1007.2
20260505224841 23 223 3.2 0.0 0.00 0.00 0.00 39 1007.0
20260505224344 24 232 1.6 0.0 0.00 0.00 0.00 38 1007.0
20260505223823 24 184 1.6 0.0 0.00 0.00 0.00 39 1007.0
20260505223356 24 229 3.2 0.0 0.00 0.00 0.00 39 1007.1
20260505222844 24 226 3.2 0.0 0.00 0.00 0.00 38 1007.0
20260505222325 24 233 3.2 0.0 0.00 0.00 0.00 38 1007.0
20260505221820 24 225 3.2 0.0 0.00 0.00 0.00 38 1007.0
20260505221356 24 219 6.4 0.0 0.00 0.00 0.00 38 1007.0
20260505220845 25 194 8.0 0.0 0.00 0.00 0.00 37 1006.9
20260505220321 24 194 4.8 0.0 0.00 0.00 0.00 38 1007.0
20260505215826 25 187 3.2 0.0 0.00 0.00 0.00 38 1006.9
20260505215328 25 217 4.8 0.0 0.00 0.00 0.00 37 1006.8
20260505214831 25 200 6.4 0.0 0.00 0.00 0.00 38 1006.9
20260505214321 25 199 6.4 0.0 0.00 0.00 0.00 37 1006.8
20260505213827 25 209 3.2 0.0 0.00 0.00 0.00 38 1006.8
20260505213329 25 197 1.6 0.0 0.00 0.00 0.00 38 1006.8
20260505212826 25 183 6.4 0.0 0.00 0.00 0.00 38 1006.8
20260505212331 25 221 12.9 0.0 0.00 0.00 0.00 37 1006.7
20260505211817 25 150 12.9 0.0 0.00 0.00 0.00 38 1006.8
20260505211320 25 153 8.0 0.0 0.00 0.00 0.00 38 1006.6
20260505210817 25 219 8.0 0.0 0.00 0.00 0.00 37 1006.5
20260505210326 26 218 6.4 0.0 0.00 0.00 0.00 37 1006.7
20260505205826 26 235 4.8 0.0 0.00 0.00 0.00 40 1006.6
20260505205331 25 233 4.8 0.0 0.00 0.00 0.00 36 1006.5
20260505204834 26 203 4.8 0.0 0.00 0.00 0.00 37 1006.5
20260505204341 26 200 9.7 0.0 0.00 0.00 0.00 39 1006.5
20260505203825 26 199 11.3 0.0 0.00 0.00 0.00 38 1006.5
20260505203330 26 215 9.7 0.0 0.00 0.00 0.00 36 1006.5
20260505202818 26 212 8.0 0.0 0.00 0.00 0.00 33 1006.6